Change the Weather History Date:

Sunday, April 13, 2014

  Actual Average Record
Temperature  
Mean Temperature 57 °F 54 °F  
Max Temperature 77 °F 66 °F 95 °F (2006)
Min Temperature 36 °F 43 °F 21 °F (1950)
Degree Days  
Heating Degree Days 8 11  
Month to date heating degree days 167 172  
Since 1 July heating degree days 5199 4767  
Cooling Degree Days 0 1  
Month to date cooling degree days 5 6  
Year to date cooling degree days 5 9  
Growing Degree Days 7 (Base 50)    
Moisture  
Dew Point 50 °F    
Average Humidity 74    
Maximum Humidity 93    
Minimum Humidity 54    
Precipitation  
Precipitation 0.99 in 0.11 in 1.79 in (1967)
Month to date precipitation 1.27 1.37  
Year to date precipitation 3.66 6.04  
Snow  
Snow 0.00 in 0.00 in 0.10 in (1993)
Month to date snowfall 0.0 0.2  
Year to date snowfall 23.0 11.2  
Since 1 July snowfall 27.3 17.7  
Snow Depth 0.00 in    
Sea Level Pressure  
Sea Level Pressure 29.56 in    
Wind  
Wind Speed 17 mph (North)    
Max Wind Speed 33 mph    
Max Gust Speed 44 mph    
Visibility 7 miles    
Events Fog , Rain , Thunderstorm    
T = Trace of Precipitation, MM = Missing Value Source: NWS Daily Summary

Daily Weather History Graph

Daily Weather History Graph

Search for Another Location

Airport or City:

Trip Planner

Search our weather history database for the weather conditions in past years. The results will help you decide how hot, cold, wet, or windy it might be!

Date:

Astronomy

Apr. 13, 2014 Rise Set
Actual Time 6:48 AM CDT 7:57 PM CDT
Civil Twilight 6:21 AM CDT 8:25 PM CDT
Nautical Twilight 5:48 AM CDT 8:58 PM CDT
Astronomical Twilight 5:14 AM CDT 9:32 PM CDT
Moon 6:37 PM CDT (4/13) 5:47 AM CDT (4/13)
Length of Visible Light 14h 04m
Length of Day
13h 09m
Waxing Gibbous, 97% of the Moon is Illuminated
Apr 13
Waxing Gibbous
Apr 15
Full
Apr 22
Last Quarter
Apr 29
New
May 6
First Quarter

Hourly Weather History & Observations

Time (CDT) Temp. Windchill Dew Point Humidity Pressure Visibility Wind Dir Wind Speed Gust Speed Precip Events Conditions
12:53 AM 69.1 °F - 55.0 °F 61% 29.60 in 10.0 mi SE 5.8 mph - N/A   Mostly Cloudy
1:53 AM 71.1 °F - 57.0 °F 61% 29.58 in 10.0 mi ESE 8.1 mph - N/A   Overcast
2:53 AM 71.1 °F - 57.0 °F 61% 29.55 in 10.0 mi ESE 10.4 mph - N/A   Overcast
3:53 AM 71.1 °F - 57.0 °F 61% 29.54 in 10.0 mi ESE 10.4 mph - N/A   Overcast
4:53 AM 70.0 °F - 57.9 °F 65% 29.53 in 10.0 mi ESE 10.4 mph - N/A   Overcast
5:53 AM 68.0 °F - 59.0 °F 73% 29.52 in 10.0 mi ESE 10.4 mph - 0.01 in   Mostly Cloudy
6:53 AM 68.0 °F - 60.1 °F 76% 29.52 in 10.0 mi ESE 10.4 mph - N/A   Overcast
7:53 AM 69.1 °F - 60.1 °F 73% 29.52 in 10.0 mi SE 13.8 mph - N/A   Overcast
8:53 AM 70.0 °F - 60.1 °F 71% 29.51 in 10.0 mi SSE 13.8 mph - N/A   Overcast
9:53 AM 70.0 °F - 61.0 °F 73% 29.50 in 10.0 mi SSE 10.4 mph - N/A   Mostly Cloudy
10:53 AM 72.0 °F - 60.1 °F 66% 29.49 in 10.0 mi South 17.3 mph 25.3 mph N/A   Partly Cloudy
11:53 AM 75.0 °F - 60.1 °F 60% 29.47 in 10.0 mi South 17.3 mph 28.8 mph N/A   Clear
12:53 PM 75.9 °F - 57.9 °F 54% 29.44 in 10.0 mi South 26.5 mph 34.5 mph 0.00 in   Mostly Cloudy
1:53 PM 73.9 °F - 60.1 °F 62% 29.39 in 10.0 mi South 21.9 mph 33.4 mph N/A   Clear
2:09 PM 73.0 °F - 60.1 °F 64% 29.44 in 10.0 mi South 20.7 mph 31.1 mph N/A Thunderstorm Scattered Clouds
2:17 PM 59.0 °F - 52.0 °F 78% 29.48 in 2.5 mi WNW 19.6 mph 43.7 mph 0.00 in Rain , Thunderstorm Light Rain
2:20 PM 55.9 °F - 51.1 °F 84% 29.50 in 1.8 mi WNW 13.8 mph 43.7 mph 0.02 in Rain , Thunderstorm Heavy Rain
2:25 PM 55.9 °F - 52.0 °F 87% 29.48 in 0.8 mi NNW 9.2 mph 26.5 mph 0.04 in Rain , Thunderstorm Heavy Thunderstorms and Rain
2:44 PM 53.1 °F - 50.0 °F 89% 29.48 in 0.5 mi North 12.7 mph - 0.41 in Fog , Rain , Thunderstorm Heavy Thunderstorms and Rain
2:50 PM 51.8 °F - 50.0 °F 94% 29.48 in 1.0 mi North 13.8 mph 20.7 mph 0.52 in Rain , Thunderstorm Heavy Thunderstorms and Rain
2:53 PM 52.0 °F - 50.0 °F 93% 29.47 in 1.5 mi NNE 15.0 mph 21.9 mph 0.54 in Rain , Thunderstorm Heavy Thunderstorms and Rain
3:02 PM 52.0 °F - 50.0 °F 93% 29.49 in 1.8 mi NE 16.1 mph - 0.08 in Rain , Thunderstorm Heavy Thunderstorms and Rain
3:09 PM 51.8 °F - 50.0 °F 94% 29.52 in 2.0 mi NE 12.7 mph - N/A Rain , Thunderstorm Heavy Thunderstorms and Rain
3:24 PM 51.1 °F - 50.0 °F 96% 29.49 in 2.5 mi NNE 11.5 mph - 0.21 in Rain , Thunderstorm Thunderstorms and Rain
3:35 PM 51.1 °F - 50.0 °F 96% 29.49 in 3.0 mi NNW 10.4 mph - 0.25 in Rain , Thunderstorm Thunderstorms and Rain
3:48 PM 51.8 °F - 51.8 °F 100% 29.52 in 4.0 mi Calm Calm - 0.29 in Rain , Thunderstorm Light Rain
3:53 PM 51.1 °F - 51.1 °F 100% 29.53 in 4.0 mi WNW 11.5 mph - 0.29 in Rain , Thunderstorm Light Rain
4:05 PM 51.1 °F - 48.9 °F 92% 29.53 in 2.0 mi NNW 16.1 mph 23.0 mph 0.04 in Rain , Thunderstorm Rain
4:07 PM 50.0 °F - 48.9 °F 96% 29.54 in 1.8 mi NW 16.1 mph - 0.05 in Rain Heavy Rain
4:10 PM 50.0 °F - 48.9 °F 96% 29.54 in 2.0 mi NW 17.3 mph - 0.06 in Rain Rain
4:14 PM 50.0 °F - 48.0 °F 93% 29.54 in 2.5 mi NW 13.8 mph 23.0 mph 0.08 in Rain , Thunderstorm Rain
4:16 PM 50.0 °F - 48.0 °F 93% 29.55 in 3.0 mi WNW 15.0 mph 23.0 mph 0.08 in Rain , Thunderstorm Light Rain
4:24 PM 50.0 °F - 48.0 °F 93% 29.52 in 4.0 mi NNW 12.7 mph - 0.10 in Rain , Thunderstorm Rain
4:47 PM 48.2 °F - 46.4 °F 93% 29.57 in 9.0 mi NW 12.7 mph 20.7 mph 0.14 in Rain Light Rain
4:53 PM 48.9 °F - 46.9 °F 93% 29.48 in 7.0 mi North 23.0 mph 28.8 mph 0.14 in Rain Light Rain
5:06 PM 48.9 °F - 46.9 °F 93% 29.53 in 10.0 mi NNW 16.1 mph 39.1 mph 0.00 in Rain Light Rain
5:53 PM 46.0 °F 38.5 °F 41.0 °F 83% 29.57 in 10.0 mi NNW 19.6 mph 32.2 mph 0.01 in   Overcast
6:13 PM 46.0 °F 39.0 °F 39.9 °F 79% 29.60 in 10.0 mi NNW 17.3 mph 29.9 mph N/A   Overcast
6:39 PM 46.0 °F 37.4 °F 39.9 °F 79% 29.62 in 10.0 mi North 25.3 mph 34.5 mph N/A   Overcast
6:53 PM 45.0 °F 36.6 °F 39.9 °F 82% 29.62 in 10.0 mi NNW 21.9 mph 33.4 mph N/A   Overcast
7:53 PM 41.0 °F 32.8 °F 37.0 °F 86% 29.69 in 4.0 mi NNW 16.1 mph 31.1 mph 0.00 in Rain Light Rain
8:53 PM 39.0 °F 29.9 °F 35.1 °F 86% 29.74 in 4.0 mi NW 17.3 mph 24.2 mph 0.00 in Rain Light Rain
9:40 PM 37.9 °F 27.3 °F 34.0 °F 86% 29.79 in 2.5 mi NW 21.9 mph 32.2 mph 0.00 in Rain Light Rain
9:53 PM 37.9 °F 27.9 °F 34.0 °F 86% 29.80 in 3.0 mi NW 19.6 mph 26.5 mph 0.00 in Rain Light Rain
10:53 PM 37.9 °F 27.6 °F 33.1 °F 83% 29.81 in 4.0 mi NNW 20.7 mph 29.9 mph 0.00 in Rain Light Rain
11:33 PM 37.0 °F 26.2 °F 33.1 °F 86% 29.84 in 10.0 mi NNW 21.9 mph 28.8 mph 0.00 in   Overcast
11:53 PM 37.0 °F 26.2 °F 32.0 °F 82% 29.83 in 10.0 mi North 21.9 mph 33.4 mph 0.00 in   Overcast